Waarnemingen

Advertentie
Mijn weer
Lichteiland Goeree, Nederland (6320): temperatuur & dauwpunt: 13.07.2018 21:00:00 - 19.07.2018 21:00:00 (CEST)Lichteiland Goeree, Nederland (6320): water temperatuur: 13.07.2018 21:00:00 - 19.07.2018 21:00:00 (CEST)Lichteiland Goeree, Nederland (6320): windsnelheid & windstoten: 13.07.2018 21:00:00 - 19.07.2018 21:00:00 (CEST)Lichteiland Goeree, Nederland (6320): windrichting: 13.07.2018 21:00:00 - 19.07.2018 21:00:00 (CEST)Lichteiland Goeree, Nederland (6320): luchtdruk: 13.07.2018 21:00:00 - 19.07.2018 21:00:00 (CEST)Lichteiland Goeree, Nederland (6320): zicht: 13.07.2018 21:00:00 - 19.07.2018 21:00:00 (CEST)
Datum & Tijd tt [°C] td [°C] tw [°C] ff [km/u] ff [kn] fx [km/u] fx [kn] dd ppp [hPa] vv [km]
19.07.2018 21:00:00 18,3 14,6 19,0 26 14 29 16 NNO 1018,2 10
19.07.2018 20:00:00 18,2 15,6 19,0 26 14 29 16 NNO 1018,2 10
19.07.2018 19:00:00 18,2 16,2 19,0 26 14 29 16 NNO 1018,4 10
19.07.2018 18:00:00 18,1 16,1 19,0 22 12 22 12 NNO 1018,8 10
19.07.2018 17:00:00 18,1 15,9 19,0 18 10 18 10 NNO 1019,2 10
19.07.2018 16:00:00 18,0 15,5 19,0 18 10 18 10 N 1019,6 10
19.07.2018 15:00:00 18,1 15,3 19,0 16 9 18 10 NNO 1019,6 10
19.07.2018 14:00:00 17,7 15,6 19,0 16 9 18 10 NNO 1019,6 10
19.07.2018 13:00:00 18,1 15,8 19,0 15 8 18 10 NO 1019,9 10
19.07.2018 12:00:00 17,8 15,7 19,0 15 8 18 10 NO 1019,8 10
19.07.2018 11:00:00 17,2 15,8 19,0 18 10 18 10 NNO 1019,7 10
19.07.2018 10:00:00 16,4 15,7 18,0 18 10 22 12 NNO 1019,8 10
19.07.2018 09:00:00 15,3 14,8 19,0 22 12 22 12 N 1019,8 5
19.07.2018 08:00:00 16,0 15,5 19,0 18 10 22 12 N 1019,5 1,4
19.07.2018 07:00:00 17,4 16,4 19,0 13 7 18 10 N 1019,4 10
19.07.2018 06:00:00 17,5 16,6 19,0 15 8 18 10 N 1019,4 10
19.07.2018 05:00:00 17,6 16,6 19,0 11 6 11 6 N 1019,4 10
19.07.2018 04:00:00 17,7 16,2 19,0 11 6 11 6 NNO 1019,5 10
19.07.2018 03:00:00 17,3 16,2 19,0 13 7 14 8 NNO 1019,7 10
19.07.2018 02:00:00 17,5 16,1 19,0 13 7 14 8 N 1019,8 10
19.07.2018 01:00:00 17,6 15,6 19,0 13 7 14 8 N 1019,7 10
19.07.2018 00:00:00 17,8 15,2 19,0 9 5 11 6 N 1019,5 10
18.07.2018 23:00:00 18,0 14,9 19,0 9 5 11 6 NNW 1019,5 10
18.07.2018 22:00:00 18,1 14,0 19,0 11 6 11 6 NNO 1019,3 10
18.07.2018 21:00:00 18,5 13,7 19,0 9 5 14 8 N 1019,1 10
18.07.2018 20:00:00 18,8 13,3 19,0 11 6 14 8 N 1019,3 10
18.07.2018 19:00:00 18,7 14,3 19,0 11 6 11 6 N 1019,2 10
18.07.2018 18:00:00 18,3 14,3 19,0 11 6 14 8 NNW 1019,4 10
18.07.2018 17:00:00 18,3 14,4 19,0 13 7 14 8 NW 1019,5 10
18.07.2018 16:00:00 18,4 14,7 19,0 15 8 14 8 NW 1019,4 10
18.07.2018 15:00:00 18,3 14,9 19,0 15 8 14 8 WNW 1019,4 10
18.07.2018 14:00:00 18,4 14,4 19,0 15 8 14 8 W 1019,5 10
18.07.2018 13:00:00 18,4 14,8 19,0 11 6 18 10 W 1019,3 10
18.07.2018 12:00:00 18,3 15,6 19,0 15 8 18 10 WZW 1019,3 10
18.07.2018 11:00:00 18,3 15,5 19,0 16 9 22 12 WZW 1018,9 10
18.07.2018 10:00:00 18,1 16,5 19,0 22 12 25 14 ZW 1018,7 10
18.07.2018 09:00:00 18,1 16,5 18,0 24 13 25 14 ZW 1018,5 10
18.07.2018 08:00:00 18,0 16,3 18,0 24 13 25 14 ZW 1018,1 10
18.07.2018 07:00:00 17,6 15,8 18,0 24 13 25 14 ZW 1017,8 10
18.07.2018 06:00:00 17,8 15,6 18,0 24 13 25 14 ZZW 1017,6 10
18.07.2018 05:00:00 18,1 15,5 18,0 22 12 22 12 ZW 1017,6 10
18.07.2018 04:00:00 18,5 15,3 18,0 22 12 22 12 ZW 1017,6 10
18.07.2018 03:00:00 18,5 14,8 18,0 18 10 22 12 ZW 1017,7 10
18.07.2018 02:00:00 18,5 14,2 18,0 15 8 18 10 WZW 1017,7 10
18.07.2018 01:00:00 18,7 14,4 19,0 16 9 22 12 ZW 1017,7 10
18.07.2018 00:00:00 18,7 13,7 19,0 24 13 25 14 WZW 1017,7 10
17.07.2018 23:00:00 18,6 14,1 19,0 24 13 29 16 WZW 1017,6 10
17.07.2018 22:00:00 18,7 13,7 19,0 24 13 29 16 WZW 1017,3 10
17.07.2018 21:00:00 18,9 13,5 18,0 24 13 29 16 WZW 1017,2 10
17.07.2018 20:00:00 18,6 14,7 18,0 24 13 32 18 WZW 1016,9 10
17.07.2018 19:00:00 18,6 14,2 19,0 34 18 36 19 WZW 1016,8 10
17.07.2018 18:00:00 18,5 14,2 19,0 31 17 32 18 WZW 1016,9 10
17.07.2018 17:00:00 18,4 13,2 18,0 28 15 29 16 WZW 1016,8 10
17.07.2018 16:00:00 17,8 13,4 19,0 29 16 32 18 W 1016,7 10
17.07.2018 15:00:00 17,4 13,5 19,0 31 17 32 18 W 1016,7 10
17.07.2018 14:00:00 17,4 13,9 18,0 34 18 36 19 W 1016,4 10
17.07.2018 13:00:00 17,4 14,0 19,0 31 17 36 19 WZW 1016,1 10
17.07.2018 12:00:00 17,3 14,4 19,0 31 17 32 18 W 1015,5 10
17.07.2018 11:00:00 17,8 13,7 19,0 35 19 36 19 W 1014,9 10
17.07.2018 10:00:00 18,1 14,3 18,0 31 17 32 18 W 1014,4 10
17.07.2018 09:00:00 18,3 15,3 18,0 34 18 36 19 W 1014,0 10
17.07.2018 08:00:00 18,6 15,8 18,0 34 18 36 19 W 1013,3 10
17.07.2018 07:00:00 18,5 16,4 18,0 35 19 40 21 WZW 1012,9 10
17.07.2018 06:00:00 18,6 16,1 18,0 31 17 32 18 WZW 1012,5 10
17.07.2018 05:00:00 19,2 15,3 18,0 34 18 32 18 ZW 1012,4 10
17.07.2018 04:00:00 19,4 15,5 18,0 21 11 22 12 ZW 1012,6 10
17.07.2018 03:00:00 20,0 15,6 18,0 16 9 18 10 ZW 1012,9 10
17.07.2018 02:00:00 20,1 14,8 18,0 13 7 18 10 ZW 1013,2 10
17.07.2018 01:00:00 20,2 15,6 18,0 18 10 25 14 ZW 1013,5 10
17.07.2018 00:00:00 20,1 15,5 18,0 28 15 29 16 ZW 1013,6 10
16.07.2018 23:00:00 20,7 13,4 19,0 24 13 29 16 ZZW 1013,2 10
16.07.2018 22:00:00 20,7 15,6 18,0 5 3 29 16 ZZO 1013,1 10
16.07.2018 21:00:00 22,7 13,5 18,0 15 8 14 8 O 1012,4 10
16.07.2018 20:00:00 23,4 11,0 18,0 11 6 14 8 NO 1012,1 10
16.07.2018 19:00:00 21,5 15,7 18,0 9 5 14 8 N 1012,2 10
16.07.2018 18:00:00 21,4 17,7 18,0 15 8 14 8 NNO 1012,3 10
16.07.2018 17:00:00 22,9 14,2 18,0 9 5 11 6 N 1012,5 10
16.07.2018 16:00:00 23,3 11,1 18,0 5 3 7 4 N 1012,8 10
16.07.2018 15:00:00 22,8 10,8 18,0 8 4 7 4 N 1013,1 10
16.07.2018 14:00:00 23,9 11,0 18,0 4 2 7 4 O 1013,4 10
16.07.2018 13:00:00 24,0 11,1 18,0 8 4 11 6 OZO 1013,7 10
16.07.2018 12:00:00 23,7 11,6 18,0 13 7 14 8 ZZO 1013,7 10
16.07.2018 11:00:00 22,6 12,8 18,0 16 9 18 10 ZZO 1013,8 10
16.07.2018 10:00:00 21,3 13,4 18,0 21 11 22 12 ZZO 1013,9 10
16.07.2018 09:00:00 20,3 14,1 18,0 22 12 25 14 ZZO 1013,7 10
16.07.2018 08:00:00 20,0 13,3 18,0 22 12 25 14 ZO 1013,7 10
16.07.2018 07:00:00 20,1 14,3 18,0 21 11 22 12 ZO 1013,8 10
16.07.2018 06:00:00 20,3 14,3 18,0 13 7 14 8 ZO 1013,6 10
16.07.2018 05:00:00 20,6 13,9 18,0 9 5 11 6 O 1013,8 10
16.07.2018 04:00:00 20,8 13,7 18,0 8 4 11 6 O 1014,0 10
16.07.2018 03:00:00 20,2 15,2 18,0 11 6 14 8 O 1014,1 10
16.07.2018 02:00:00 21,4 15,8 18,0 15 8 14 8 O 1014,4 10
16.07.2018 01:00:00 20,6 16,1 18,0 15 8 18 10 O 1014,7 10
16.07.2018 00:00:00 20,3 15,4 18,0 21 11 22 12 ONO 1014,8 10
15.07.2018 23:00:00 20,6 14,9 18,0 21 11 22 12 ONO 1015,1 10
15.07.2018 22:00:00 20,1 14,9 18,0 24 13 25 14 ONO 1015,0 10
15.07.2018 21:00:00 19,9 15,2 18,0 22 12 25 14 NO 1014,9 10
15.07.2018 20:00:00 19,4 15,6 18,0 21 11 22 12 NO 1014,9 10
15.07.2018 19:00:00 19,6 15,2 18,0 21 11 22 12 NO 1015,1 10
15.07.2018 18:00:00 20,0 14,5 18,0 21 11 22 12 NO 1015,5 10
15.07.2018 17:00:00 20,5 14,1 18,0 18 10 18 10 NO 1016,0 10
15.07.2018 16:00:00 20,3 14,6 18,0 18 10 18 10 NO 1016,2 10
15.07.2018 15:00:00 20,5 14,3 18,0 13 7 14 8 NO 1016,5 10
15.07.2018 14:00:00 20,7 12,5 18,0 11 6 11 6 NO 1017,0 10
15.07.2018 13:00:00 19,8 15,0 18,0 11 6 11 6 O 1017,5 10
15.07.2018 12:00:00 20,0 15,3 18,0 9 5 11 6 O 1017,7 10
15.07.2018 11:00:00 18,7 15,1 18,0 13 7 14 8 OZO 1017,8 10
15.07.2018 10:00:00 18,2 14,8 18,0 13 7 14 8 OZO 1017,8 10
15.07.2018 09:00:00 17,7 14,7 18,0 11 6 18 10 OZO 1017,8 10
15.07.2018 08:00:00 18,4 14,7 18,0 13 7 18 10 OZO 1017,8 10
15.07.2018 07:00:00 18,2 14,5 18,0 15 8 18 10 ZO 1017,6 10
15.07.2018 06:00:00 18,0 14,1 18,0 18 10 22 12 OZO 1017,5 10
15.07.2018 05:00:00 18,2 13,9 18,0 21 11 22 12 OZO 1017,9 10
15.07.2018 04:00:00 18,1 14,6 18,0 16 9 22 12 O 1018,1 10
15.07.2018 03:00:00 18,4 14,6 18,0 24 13 25 14 O 1018,4 10
15.07.2018 02:00:00 18,7 14,6 18,0 21 11 25 14 O 1018,6 10
15.07.2018 01:00:00 19,4 15,2 18,0 21 11 18 10 O 1018,8 10
15.07.2018 00:00:00 18,5 16,4 18,0 21 11 22 12 ONO 1018,6 10
14.07.2018 23:00:00 18,3 15,8 18,0 18 10 18 10 ONO 1018,8 10
14.07.2018 22:00:00 18,1 15,5 18,0 16 9 22 12 NO 1018,8 10
14.07.2018 21:00:00 18,0 14,9 18,0 22 12 25 14 NO 1018,9 10
14.07.2018 20:00:00 17,8 14,6 18,0 24 13 25 14 NO 1019,2 10
14.07.2018 19:00:00 17,6 14,8 18,0 21 11 22 12 NO 1019,6 10
14.07.2018 18:00:00 17,5 14,7 18,0 21 11 22 12 NNO 1019,8 10
14.07.2018 17:00:00 17,4 14,1 18,0 18 10 22 12 NNO 1019,9 10
14.07.2018 16:00:00 17,4 13,8 18,0 16 9 18 10 NNO 1020,3 10
14.07.2018 15:00:00 17,1 13,5 18,0 18 10 22 12 NNO 1020,9 10
14.07.2018 14:00:00 16,9 13,6 18,0 18 10 18 10 NNO 1021,1 10
14.07.2018 13:00:00 16,8 13,1 18,0 13 7 14 8 NNO 1021,4 10
14.07.2018 12:00:00 16,7 13,0 18,0 11 6 14 8 NNO 1021,8 10
14.07.2018 11:00:00 17,1 13,1 18,0 15 8 14 8 ONO 1021,8 10
14.07.2018 10:00:00 17,1 13,2 18,0 13 7 14 8 O 1021,7 10
14.07.2018 09:00:00 17,3 13,4 18,0 13 7 14 8 ONO 1021,8 10
14.07.2018 08:00:00 17,3 13,9 18,0 13 7 18 10 O 1021,6 10
14.07.2018 07:00:00 17,0 13,4 18,0 16 9 18 10 ONO 1021,2 10
14.07.2018 06:00:00 16,6 13,1 18,0 18 10 18 10 NO 1021,2 10
14.07.2018 05:00:00 16,6 13,2 18,0 16 9 18 10 NO 1021,5 10
14.07.2018 04:00:00 16,7 13,1 18,0 16 9 22 12 ONO 1021,4 10
14.07.2018 03:00:00 16,8 13,1 18,0 21 11 25 14 ONO 1021,5 10
14.07.2018 02:00:00 16,8 13,1 18,0 22 12 25 14 NO 1021,6 10
14.07.2018 01:00:00 16,8 13,5 18,0 24 13 25 14 NO 1021,7 10
14.07.2018 00:00:00 16,7 13,5 18,0 28 15 29 16 NO 1021,6 10
13.07.2018 23:00:00 16,6 13,5 18,0 28 15 32 18 NNO 1021,5 10
13.07.2018 22:00:00 16,4 13,0 18,0 28 15 29 16 NNO 1021,3 10
13.07.2018 21:00:00 16,5 13,0 18,0 26 14 29 16 NNO 1021,2 10

tt = temperatuur
td = dauwpunt
tw = water temperatuur
ff = windsnelheid
fx = windstoten
dd = windrichting
ppp = luchtdruk
vv = zicht

Weerstations in de omgeving